Location: Rockford
(42.2710°N, 89.0940°W)
Time: 21:09:27
(UTC-06:00)

SPOT 5 - Visible Passes

Search period start: 02 March 2015 00:00
Search period end: 12 March 2015 01:00
Orbit: 824 x 826 km, 98.5° (Epoch: 02 March)

Date Brightness Start Highest point End Pass type
(mag) Time Alt. Az. Time Alt. Az. Time Alt. Az.
02 Mar 4.7 19:32:58 18° NE 19:32:58 18° NE 19:35:27 10° NNE visible
02 Mar 5.0 21:14:25 25° NNW 21:14:25 25° NNW 21:16:40 10° NNW visible
03 Mar 4.9 19:13:15 14° NE 19:13:15 14° NE 19:15:15 10° NNE visible
03 Mar 4.6 20:54:42 31° NNW 20:54:42 31° NNW 20:57:23 10° NNW visible
04 Mar 4.3 20:34:59 34° N 20:34:59 34° N 20:37:59 10° N visible
04 Mar 6.1 22:16:26 11° NW 22:16:26 11° NW 22:16:37 10° NW visible
05 Mar 4.2 20:15:16 32° NNE 20:15:16 32° NNE 20:18:28 10° N visible
05 Mar 5.7 21:56:43 16° NW 21:56:43 16° NW 21:58:05 10° NW visible
06 Mar 4.3 19:55:33 27° NE 19:55:33 27° NE 19:58:50 10° N visible
06 Mar 5.3 21:36:59 22° NW 21:36:59 22° NW 21:39:11 10° NNW visible
07 Mar 4.5 19:35:50 21° NE 19:35:50 21° NE 19:39:01 10° NNE visible
07 Mar 4.8 21:17:16 30° NW 21:17:16 30° NW 21:20:05 10° NNW visible
08 Mar 4.8 20:16:06 15° ENE 20:16:06 15° ENE 20:18:54 10° NNE visible
08 Mar 4.3 21:57:33 38° NNW 21:57:33 38° NNW 22:00:50 10° NNW visible
09 Mar 5.1 19:56:23 10° ENE 19:56:42 10° ENE 19:57:42 10° NE visible
09 Mar 3.9 21:37:50 43° N 21:37:50 43° N 21:41:27 10° N visible
09 Mar 6.0 23:19:17 11° WNW 23:19:17 11° WNW 23:19:48 10° NW visible
10 Mar 3.9 21:18:07 40° NNE 21:18:07 40° NNE 21:21:58 10° N visible
10 Mar 5.6 22:59:34 17° WNW 22:59:34 17° WNW 23:01:24 10° NW visible
11 Mar 4.0 20:58:24 32° NE 20:58:24 32° NE 21:02:21 10° N visible
11 Mar 5.1 22:39:51 25° NW 22:39:51 25° NW 22:42:33 10° NNW visible
